CZ-6A DEB, 61373

Orbit data source: Space-Track

CZ-6A DEB, 61373 is space debris in LEO originally from a launch on Tue, 06 Aug 2024 UTC launched from the Taiyaun Space Center, China (TSC). Debris objects in space refer to the collection of defunct objects orbiting the Earth. Examples of debris include non-operational satellites, rocket bodies, and fragments generated from explosions, collisions, or faulty payload assembly.

Loading next visibility...
Identifier
61373, 2024-140WN
Orbit
LEO
Country
Flag of CNCN / PRC
Related business
Manufacturer
SAST
Mission
Spacecraft
Bus & Motor
Unknown
Mass
Unknown
Launch date (UTC)
2024-08-06 (2 years ago)
Launch vehicle
Unknown
Launch site
Taiyaun Space Center, China (TSC)
Object type
Payload
Rocket body
Debris
Shape & HBR
Unknown shape, 0.1 m
Radar Cross Section
Medium (>0.1 m² and <1 m²)

Expand to show TLE details & history
Last TLE update: 19 hours ago

TLE from 19 hours ago
0 CZ-6A DEB
1 61373U 24140WN  26171.18753360  .00005516  00000-0  12908-2 0  9990
2 61373  88.7461 250.0463 0085837 187.2928 172.7039 14.52236397 94536
Epoch: 2026-06-20T04:30Z
TLE epoch observation values (Epoch: 2026-06-20T04:30:02.903Z)
Latitude
0.00001°
Longitude
-85.87155°
Altitude
781.894 km
Speed
7.431 km/s
True Right ascension
16h 40m 11s
True Declination
0° 00' 00"
Sunlit
Object was in full shadow at epoch
Visualization orbit readout
Latitude
Unknown
Longitude
Unknown
Altitude
Unknown
Speed
Unknown
Apparent Right ascension
Unknown
Apparent Declination
Unknown
Sunlit
N/A
Visualization observer readout
Local Sidereal Time
10:17:12
Azimuth
Unknown
Elevation
Unknown
Doppler factor
Unknown
Orbital elements
Apogee altitude
776.148 km
Perigee altitude
654.372 km
Semi-major axis
7,093.397 km
Eccentricity
0.00858
Inclination
88.7461°
RAAN
250.0463°
Arg. of periapsis
187.2928°
True anomaly
172.8275°
Mean anomaly
172.7039°
Eccentric anomaly
172.76583°
Mean motion
3.63297 °/min
Orbital period
99.09 mins
BSTAR
0.0012908
Loading maneuver chart data...
Computing Atmospheric mass density...
Loading historical data...
Loading historical data...
Loading historical data...
Loading historical data...
Loading historical data...
Loading historical data...
Loading historical data...

Documentation

Showing up to 5 results
|